Regional Weather Roundup
Issued by NWS

Home | Current Version | Previous Version | Graphics & Text | Print | Product List | Glossary On
Versions: 1 2 3 4 5 6 7 8 9 10 11 12 13 14 15 16 17 18 19 20 21 22 23 24 25 26 27 28 29 30 31 32 33 34 35 36 37 38 39 40 41 42 43 44 45 46 47 48 49 50
000
ASUS43 KBIS 070402
RWRND

NORTH DAKOTA REGIONAL WEATHER ROUNDUP
NATIONAL WEATHER SERVICE BISMARCK ND
1000 PM CST SAT FEB 06 2016

NOTE: "FAIR" INDICATES FEW OR NO CLOUDS BELOW 12,000 FEET WITH NO
SIGNIFICANT WEATHER AND/OR OBSTRUCTIONS TO VISIBILITY.


NDZ001>003-009>011-017-070500-
NORTHWEST NORTH DAKOTA

CITY           SKY/WX    TMP DP  RH WIND       PRES   REMARKS
WILLISTON      CLEAR     37  23  56 W25G35    29.80S
MINOT          LGT RAIN  40  26  57 W30G43    29.62R
MINOT AFB      CLOUDY    38  30  74 W30G39    29.60R
$$

NDZ018>021-031>035-040>046-070500-
SOUTHWEST NORTH DAKOTA

CITY           SKY/WX    TMP DP  RH WIND       PRES   REMARKS
BISMARCK       CLOUDY    45  30  55 W17G26    29.74R
DICKINSON      CLEAR     35  22  58 W28G37    29.81R
GARRISON         N/A     38  27  64 NW28G43   29.69R
HETTINGER ARPT CLEAR     36  22  56 W29G36    29.89R
$$

NDZ004>008-012>016-024-026-027-054-070500-
NORTHEAST NORTH DAKOTA

CITY           SKY/WX    TMP DP  RH WIND       PRES   REMARKS
GRAND FORKS    PTCLDY    38  31  76 SW12      29.49F
GRND FRKS AFB  PTCLDY    38  30  72 SW15      29.48F
DEVILS LAKE    CLOUDY    36  33  89 W28G33    29.50F
$$

NDZ022-023-025-028>030-036>039-047>053-070500-
SOUTHEAST NORTH DAKOTA

CITY           SKY/WX    TMP DP  RH WIND       PRES   REMARKS
FARGO          CLEAR     38  33  82 SW17      29.58F
JAMESTOWN      LGT RAIN  38  31  76 W22       29.60S
$$




USA.gov is the U.S. government's official web portal to all federal, state and local government web resources and services.